W7KKE-3 Weather Reports


time (UTC)temp
C
wind
direction
speed
KPH
gust
KPH
rain 1hr
cm
rain 24hr
cm
rain mn
cm
humidity
%
barometer
mb
20260903033825 15 154 8.0 20.9 0.00 1.22 1.22 86 1004.7
20260903033325 15 105 4.8 19.3 0.00 1.22 1.22 86 1004.7
20260903032826 15 211 12.9 17.7 0.00 1.22 1.22 86 1004.6
20260903032325 15 193 4.8 24.1 0.00 1.22 1.22 87 1004.6
20260903031825 15 194 9.7 24.1 0.00 1.22 1.22 86 1004.6
20260903031326 15 190 8.0 24.1 0.00 1.22 1.22 86 1004.6
20260903030825 15 173 12.9 20.9 0.00 1.22 1.22 86 1004.6
20260903030325 15 179 6.4 20.9 0.00 1.22 1.22 86 1004.5
20260903025826 15 201 8.0 20.9 0.00 1.22 1.22 86 1004.5
20260903025325 15 186 6.4 22.5 0.00 1.22 1.22 86 1004.6
20260903024826 15 207 9.7 22.5 0.00 1.22 1.22 86 1004.5
20260903024326 15 196 9.7 22.5 0.00 1.22 1.22 86 1004.5
20260903023825 15 154 9.7 17.7 0.00 1.22 1.22 86 1004.4
20260903023325 15 204 11.3 24.1 0.00 1.22 1.22 86 1004.5
20260903022826 15 177 6.4 24.1 0.00 1.22 1.22 86 1004.5
20260903022325 15 205 11.3 24.1 0.00 1.22 1.22 85 1004.6
20260903021825 15 205 9.7 27.4 0.00 1.22 1.22 85 1004.5
20260903021326 15 184 4.8 27.4 0.00 1.22 1.22 85 1004.5
20260903020825 15 173 11.3 27.4 0.00 1.22 1.22 85 1004.5
20260903020325 15 179 11.3 27.4 0.00 1.22 1.22 85 1004.5
20260903015826 16 182 8.0 27.4 0.00 1.22 1.22 84 1004.5
20260903015325 16 196 6.4 27.4 0.00 1.22 1.22 84 1004.4
20260903014825 16 194 14.5 22.5 0.00 1.22 1.22 84 1004.3
20260903014326 16 205 9.7 32.2 0.00 1.22 1.22 84 1004.4
20260903013825 16 200 16.1 32.2 0.00 1.22 1.22 84 1004.3
20260903013326 16 198 14.5 32.2 0.00 1.22 1.22 84 1004.4
20260903012826 16 207 14.5 30.6 0.00 1.22 1.22 84 1004.4
20260903012325 16 184 17.7 27.4 0.00 1.22 1.22 83 1004.4
20260903011828 16 179 16.1 29.0 0.00 1.22 0.00 84 1004.3
20260903011825 16 179 16.1 29.0 0.00 1.22 1.22 84 1004.3
20260903011326 16 212 11.3 29.0 0.00 1.22 1.22 84 1004.4
20260903010826 16 203 16.1 29.0 0.00 1.22 1.22 84 1004.3
20260903010325 16 256 19.3 24.1 0.00 1.22 1.22 84 1004.3
20260903005826 16 175 12.9 32.2 0.00 1.22 1.22 84 1004.2
20260903005325 16 179 8.0 32.2 0.00 1.22 1.22 84 1004.3
20260903004826 16 210 11.3 32.2 0.00 1.22 1.22 84 1004.2
20260903004326 16 149 14.5 33.8 0.00 1.22 1.22 84 1004.1
20260903003826 16 198 12.9 33.8 0.00 1.22 1.22 84 1004.2
20260903003325 16 180 17.7 33.8 0.00 1.22 1.22 84 1004.2
20260903002825 16 218 11.3 25.7 0.00 1.22 1.22 85 1004.1
20260903002325 16 198 11.3 32.2 0.00 1.22 1.22 84 1004.1
20260903001826 16 201 17.7 32.2 0.00 1.22 1.22 84 1004.0
20260903001326 16 175 17.7 32.2 0.00 1.22 1.22 84 1004.0
20260903000826 16 196 14.5 27.4 0.00 1.22 1.22 85 1004.0
20260903000325 16 176 12.9 22.5 0.00 1.22 1.22 86 1003.8
20260902235826 16 196 11.3 22.5 0.00 1.22 1.22 86 1003.8
20260902235325 16 189 6.4 22.5 0.00 1.22 1.22 86 1003.7
20260902234826 16 190 16.1 20.9 0.00 1.22 1.22 85 1003.6
20260902234326 17 200 9.7 20.9 0.00 1.22 1.22 86 1003.6
20260902233826 17 190 8.0 20.9 0.00 1.22 1.22 87 1003.5
20260902233325 17 196 11.3 20.9 0.00 1.22 1.22 87 1003.4
20260902232826 17 200 11.3 20.9 0.00 1.22 1.22 87 1003.4
20260902232325 16 186 14.5 25.7 0.00 1.22 1.22 87 1003.4
20260902231826 17 186 6.4 25.7 0.00 1.22 1.22 88 1003.3
20260902231326 17 180 12.9 25.7 0.00 1.22 1.22 87 1003.3
20260902230826 17 194 17.7 24.1 0.00 1.22 1.22 88 1003.2
20260902225826 17 222 12.9 17.7 0.00 1.22 1.22 89 1003.1
20260902225325 17 196 6.4 22.5 0.00 1.22 1.22 89 1003.1
20260902224826 17 229 14.5 22.5 0.00 1.22 1.22 89 1003.1
20260902224326 17 182 9.7 22.5 0.00 1.22 1.22 89 1003.0
20260902223325 17 186 11.3 22.5 0.03 1.22 1.22 89 1002.8
20260902222826 17 256 12.9 22.5 0.03 1.22 1.22 89 1002.8
20260902222325 16 196 9.7 17.7 0.03 1.22 1.22 90 1002.8
20260902221826 16 187 4.8 20.9 0.03 1.22 1.22 90 1002.8
20260902221326 16 196 8.0 20.9 0.03 1.22 1.22 90 1002.7
20260902220325 16 205 8.0 20.9 0.03 1.22 1.22 90 1002.6
20260902215826 15 191 6.4 20.9 0.03 1.22 1.22 90 1002.6
20260902215325 15 201 11.3 20.9 0.03 1.22 1.22 90 1002.6
20260902214825 15 190 3.2 20.9 0.03 1.22 1.22 90 1002.7
20260902214326 15 184 8.0 20.9 0.03 1.22 1.22 90 1002.7
20260902213826 15 201 9.7 20.9 0.00 1.19 1.22 90 1002.6
20260902213325 15 211 8.0 20.9 0.00 1.19 1.19 90 1002.5
20260902212825 15 191 4.8 24.1 0.00 1.19 1.19 90 1002.4
20260902212325 15 203 8.0 24.1 0.00 1.19 1.19 90 1002.3
20260902211825 15 212 6.4 24.1 0.00 1.19 1.19 90 1002.2
20260902211326 15 193 6.4 22.5 0.00 1.19 1.19 90 1002.2
20260902210825 15 242 12.9 27.4 0.03 1.19 1.19 90 1002.2
20260902210326 15 186 3.2 27.4 0.03 1.19 1.19 90 1002.2
20260902205827 15 214 9.7 27.4 0.03 1.19 1.19 90 1002.3
20260902205325 15 194 12.9 17.7 0.03 1.19 1.19 90 1002.2
20260902204825 15 159 11.3 29.0 0.03 1.19 1.19 90 1002.1
20260902204326 15 212 14.5 29.0 0.03 1.19 1.19 90 1002.1
20260902203825 15 176 12.9 29.0 0.05 1.19 1.19 90 1002.0
20260902203325 15 191 9.7 25.7 0.05 1.19 1.19 90 1002.0
20260902202826 15 189 11.3 25.7 0.08 1.19 1.19 90 1002.0
20260902202325 15 137 14.5 24.1 0.08 1.19 1.19 90 1001.7
20260902201825 15 201 12.9 45.1 0.08 1.19 1.19 90 1001.8
20260902201326 15 203 16.1 45.1 0.08 1.19 1.19 90 1001.7
20260902200825 15 190 16.1 45.1 0.10 1.19 1.19 90 1001.6
20260902200325 15 233 27.4 43.5 0.10 1.19 1.19 90 1001.5
20260902195827 15 172 22.5 48.3 0.18 1.17 1.17 90 1001.7
20260902195325 15 179 22.5 48.3 0.18 1.17 1.17 90 1001.6
20260902194859 15 193 17.7 48.3 0.28 1.17 1.17 90 1001.7
20260902194825 15 193 17.7 48.3 0.28 1.17 1.17 90 1001.7
20260902194326 15 187 22.5 56.3 0.28 1.17 1.17 90 1001.7
20260902193825 15 191 12.9 56.3 0.33 1.17 1.17 90 1001.6
20260902193325 15 218 19.3 56.3 0.33 1.14 1.14 89 1001.7
20260902192827 15 198 20.9 51.5 0.36 1.14 1.14 89 1001.6
20260902192325 15 149 14.5 33.8 0.36 1.14 1.14 89 1001.7
20260902191826 15 173 11.3 25.7 0.41 1.12 1.12 89 1001.4
20260902191326 15 168 14.5 17.7 0.41 1.12 1.12 89 1001.4
20260902190825 15 190 8.0 14.5 0.36 1.09 1.12 89 1001.3
20260902190325 15 207 8.0 22.5 0.36 1.09 1.09 89 1001.2
20260902185827 15 175 8.0 22.5 0.28 1.04 1.04 89 1001.1
20260902185325 15 201 11.3 22.5 0.28 1.02 1.02 89 1001.0
20260902184825 15 155 8.0 29.0 0.18 0.94 0.97 89 1001.0
20260902184326 15 154 9.7 29.0 0.18 0.91 0.91 89 1000.9
20260902183825 15 170 6.4 29.0 0.13 0.86 0.86 89 1000.7
20260902183325 15 177 11.3 25.7 0.13 0.81 0.84 89 1000.6
20260902182827 15 109 9.7 25.7 0.10 0.79 0.79 89 1000.7
20260902182325 15 191 9.7 16.1 0.10 0.76 0.76 89 1000.7
20260902181825 15 144 6.4 25.7 0.08 0.74 0.74 89 1000.6
20260902181326 15 137 8.0 25.7 0.08 0.71 0.71 89 1000.6
20260902180825 15 180 4.8 25.7 0.15 0.71 0.71 89 1000.5
20260902180325 15 147 6.4 22.5 0.15 0.71 0.71 89 1000.4
20260902175827 15 196 9.7 20.9 0.18 0.71 0.71 89 1000.3
20260902175325 15 173 9.7 20.9 0.18 0.71 0.71 89 1000.3
20260902174825 15 68 6.4 20.9 0.25 0.71 0.71 89 1000.2
20260902174326 15 156 6.4 24.1 0.25 0.71 0.71 89 1000.2
20260902173825 15 161 4.8 24.1 0.25 0.71 0.71 89 1000.2
20260902173325 15 173 3.2 24.1 0.25 0.71 0.71 89 1000.3
20260902172827 15 172 3.2 20.9 0.28 0.69 0.69 88 1000.2
20260902172325 15 86 8.0 17.7 0.28 0.66 0.66 88 1000.2
20260902171825 15 183 4.8 25.7 0.28 0.66 0.66 88 1000.1
20260902171326 15 169 9.7 25.7 0.28 0.64 0.64 88 1000.1
20260902170825 15 191 4.8 25.7 0.20 0.61 0.64 88 1000.2
20260902170325 15 109 8.0 30.6 0.20 0.58 0.58 88 1000.3
20260902165826 15 64 8.0 30.6 0.20 0.56 0.56 88 1000.4
20260902165325 15 121 8.0 30.6 0.20 0.53 0.53 88 1000.4
20260902164825 15 189 9.7 12.9 0.13 0.51 0.51 88 1000.6
20260902164326 15 84 4.8 11.3 0.13 0.48 0.48 88 1000.7
20260902163825 15 75 4.8 14.5 0.13 0.46 0.46 88 1000.8
20260902163327 15 96 4.8 14.5 0.13 0.43 0.46 88 1000.9
20260902162827 15 116 3.2 14.5 0.10 0.41 0.41 88 1001.0
20260902162325 15 138 6.4 12.9 0.10 0.38 0.38 88 1001.0
20260902161825 15 138 4.8 12.9 0.10 0.38 0.38 88 1001.1
20260902161326 15 85 3.2 12.9 0.10 0.36 0.38 88 1001.3
20260902160825 15 102 6.4 11.3 0.15 0.36 0.36 88 1001.3
20260902160326 15 105 4.8 16.1 0.15 0.36 0.36 88 1001.5
20260902155826 15 124 3.2 16.1 0.18 0.33 0.36 88 1001.7
20260902155325 15 123 4.8 16.1 0.18 0.33 0.33 88 1001.9
20260902154826 15 156 4.8 11.3 0.23 0.33 0.33 87 1001.9
20260902154326 15 130 3.2 11.3 0.23 0.33 0.33 87 1002.0
20260902153825 15 190 1.6 11.3 0.25 0.30 0.30 87 1002.0
20260902153325 15 183 3.2 9.7 0.25 0.30 0.30 87 1002.1
20260902152826 15 198 3.2 9.7 0.25 0.30 0.30 87 1002.0
20260902152325 15 109 1.6 9.7 0.25 0.30 0.30 87 1002.0
20260902151825 15 110 3.2 9.7 0.23 0.28 0.28 87 1002.1
20260902151326 15 99 4.8 9.7 0.23 0.25 0.28 87 1002.0
20260902150825 15 98 1.6 9.7 0.18 0.25 0.25 87 1001.9
20260902150325 15 99 1.6 9.7 0.18 0.25 0.23 86 1001.9
20260902145826 15 119 3.2 8.0 0.13 0.18 0.18 86 1002.0
20260902145325 15 116 3.2 8.0 0.13 0.15 0.15 86 1002.1
20260902144825 15 107 3.2 9.7 0.08 0.13 0.13 86 1002.1
20260902144326 15 196 3.2 9.7 0.08 0.10 0.10 86 1002.2
20260902143826 15 184 4.8 9.7 0.03 0.10 0.08 86 1002.2
20260902143325 15 120 6.4 8.0 0.03 0.10 0.05 85 1002.1
20260902142826 15 68 3.2 11.3 0.00 0.10 0.05 85 1002.1
20260902142325 15 155 1.6 11.3 0.00 0.10 0.03 85 1002.0
20260902141825 15 173 1.6 11.3 0.00 0.10 0.03 85 1002.1
20260902141326 15 40 3.2 11.3 0.00 0.10 0.03 85 1002.0
20260902140825 15 98 6.4 24.1 0.03 0.10 0.03 85 1002.2
20260902140325 15 169 4.8 24.1 0.03 0.10 0.03 86 1002.3
20260902135826 15 204 9.7 24.1 0.03 0.10 0.03 86 1002.5
20260902135325 15 191 11.3 22.5 0.03 0.10 0.03 86 1002.5
20260902134825 15 172 8.0 20.9 0.03 0.10 0.03 86 1002.5
20260902134326 15 166 4.8 17.7 0.03 0.10 0.03 86 1002.5
20260902133825 15 144 8.0 11.3 0.03 0.10 0.03 86 1002.5
20260902133325 15 170 3.2 27.4 0.03 0.10 0.03 86 1002.5
20260902132826 15 93 1.6 27.4 0.03 0.10 0.03 86 1002.5
20260902132325 15 207 6.4 27.4 0.03 0.10 0.03 86 1002.6
20260902131825 15 128 6.4 19.3 0.03 0.10 0.03 85 1002.7
20260902131326 15 154 9.7 17.7 0.03 0.10 0.03 85 1002.8
20260902130825 15 182 8.0 17.7 0.00 0.10 0.03 85 1002.8
20260902130325 15 224 8.0 17.7 0.00 0.10 0.00 85 1002.9
20260902125826 15 180 4.8 16.1 0.00 0.10 0.00 84 1003.0
20260902125325 15 194 6.4 16.1 0.00 0.10 0.00 84 1003.0
20260902124917 16 169 4.8 17.7 0.00 0.10 0.00 83 1003.2
20260902124825 16 169 4.8 17.7 0.00 0.10 0.00 83 1003.2
20260902124326 16 180 9.7 17.7 0.00 0.10 0.00 83 1003.3
20260902123825 16 173 8.0 17.7 0.00 0.10 0.00 83 1003.3
20260902123325 16 221 6.4 27.4 0.00 0.10 0.00 82 1003.3
20260902122826 16 166 4.8 27.4 0.00 0.10 0.00 82 1003.2
20260902121825 16 151 12.9 19.3 0.00 0.10 0.00 81 1003.2
20260902121327 16 197 6.4 16.1 0.00 0.10 0.00 82 1003.3
20260902120825 16 147 4.8 16.1 0.00 0.10 0.00 82 1003.5
20260902120325 16 193 9.7 16.1 0.00 0.10 0.00 82 1003.4
20260902115826 16 208 6.4 29.0 0.00 0.10 0.00 82 1003.5
20260902115325 16 163 6.4 29.0 0.00 0.10 0.00 82 1003.5
20260902114825 16 166 4.8 29.0 0.00 0.10 0.00 82 1003.6
20260902114326 16 149 11.3 12.9 0.00 0.10 0.00 82 1003.7
20260902113825 16 207 6.4 17.7 0.00 0.10 0.00 82 1003.9
20260902113325 16 113 4.8 17.7 0.00 0.10 0.00 82 1004.0
20260902112826 16 161 6.4 17.7 0.00 0.10 0.00 82 1004.1
20260902112325 16 159 8.0 22.5 0.00 0.10 0.00 83 1004.0
20260902111825 16 144 9.7 22.5 0.00 0.10 0.00 83 1004.1
20260902111326 16 190 6.4 22.5 0.00 0.10 0.00 83 1004.2
20260902110827 16 184 6.4 19.3 0.00 0.10 0.00 83 1004.3
20260902110325 16 149 8.0 16.1 0.00 0.10 0.00 83 1004.4
20260902105826 16 190 9.7 16.1 0.00 0.10 0.00 84 1004.5
20260902105325 16 201 6.4 17.7 0.00 0.10 0.00 84 1004.6
20260902104825 16 84 6.4 17.7 0.00 0.10 0.00 84 1004.6
20260902104326 16 100 4.8 17.7 0.00 0.10 0.00 84 1004.6
20260902103825 16 170 6.4 12.9 0.00 0.10 0.00 84 1004.7
20260902103325 16 98 4.8 20.9 0.00 0.10 0.00 84 1004.8
20260902102826 16 183 1.6 20.9 0.00 0.10 0.00 84 1004.9
20260902102325 16 173 8.0 20.9 0.00 0.10 0.00 84 1004.9
20260902101825 16 200 9.7 27.4 0.00 0.10 0.00 84 1005.0
20260902101326 16 212 9.7 27.4 0.00 0.10 0.00 84 1005.2
20260902100825 16 135 6.4 27.4 0.00 0.10 0.00 85 1005.3
20260902100325 16 109 9.7 14.5 0.00 0.10 0.00 85 1005.3
20260902095826 16 189 6.4 14.5 0.00 0.10 0.00 85 1005.3
20260902095325 16 208 3.2 20.9 0.00 0.10 0.00 85 1005.4
20260902094825 16 135 9.7 20.9 0.00 0.10 0.00 85 1005.5
20260902094326 16 200 8.0 20.9 0.00 0.10 0.00 85 1005.5
20260902093825 16 189 8.0 17.7 0.00 0.10 0.00 85 1005.6
20260902093325 16 194 8.0 17.7 0.00 0.10 0.00 85 1005.6
20260902092826 16 212 4.8 17.7 0.00 0.10 0.00 85 1005.7
20260902092325 16 131 6.4 25.7 0.00 0.10 0.00 85 1005.8
20260902091825 16 141 4.8 25.7 0.00 0.10 0.00 85 1005.8
20260902091326 16 191 11.3 25.7 0.00 0.10 0.00 85 1005.8
20260902090825 16 205 12.9 22.5 0.00 0.10 0.00 85 1005.8
20260902090325 16 149 9.7 22.5 0.00 0.10 0.00 85 1005.9
20260902085857 16 201 4.8 32.2 0.00 0.10 0.00 85 1005.9
20260902085826 16 201 4.8 32.2 0.00 0.10 0.00 85 1005.9
20260902085325 16 214 1.6 32.2 0.00 0.10 0.00 85 1006.0
20260902084825 16 158 11.3 32.2 0.00 0.10 0.00 85 1006.1
20260902084326 16 186 16.1 24.1 0.00 0.10 0.00 85 1006.2
20260902083825 16 208 12.9 14.5 0.00 0.10 0.00 85 1006.2
20260902083325 16 218 0.0 14.5 0.00 0.10 0.00 85 1006.2
20260902082826 16 193 4.8 22.5 0.00 0.10 0.00 85 1006.2
20260902082325 16 151 3.2 22.5 0.00 0.10 0.00 85 1006.3
20260902081825 16 177 11.3 22.5 0.00 0.10 0.00 85 1006.3
20260902081326 16 203 6.4 20.9 0.00 0.10 0.00 85 1006.3
20260902080825 16 183 8.0 20.9 0.00 0.10 0.00 85 1006.3
20260902080325 16 236 9.7 14.5 0.00 0.10 0.00 85 1006.3
20260902075826 16 201 6.4 24.1 0.00 0.10 0.00 85 1006.4
20260902075325 16 193 8.0 24.1 0.00 0.10 0.00 85 1006.5
20260902074825 16 127 8.0 24.1 0.00 0.10 0.00 85 1006.5
20260902074326 16 218 6.4 19.3 0.00 0.10 0.00 85 1006.6
20260902073825 16 155 6.4 22.5 0.00 0.10 0.00 85 1006.6
20260902073325 16 109 11.3 22.5 0.00 0.10 0.00 85 1006.7
20260902072858 16 184 3.2 22.5 0.00 0.10 0.00 85 1006.7
20260902072826 16 184 3.2 22.5 0.00 0.10 0.00 85 1006.7
20260902072325 16 197 14.5 20.9 0.00 0.10 0.00 85 1006.8
20260902071825 16 163 12.9 20.9 0.00 0.10 0.00 85 1006.8
20260902071326 16 144 4.8 20.9 0.00 0.10 0.00 85 1006.9
20260902070825 16 149 4.8 19.3 0.00 0.10 0.00 85 1006.9
20260902070325 16 210 1.6 16.1 0.00 0.10 0.00 85 1007.0
20260902065826 16 193 4.8 16.1 0.00 0.10 0.00 85 1007.0
20260902065325 16 201 3.2 16.1 0.00 0.10 0.10 86 1007.0
20260902064825 16 179 8.0 24.1 0.00 0.10 0.10 86 1007.1
20260902064326 16 184 9.7 24.1 0.00 0.10 0.10 86 1007.1
20260902063825 16 134 6.4 24.1 0.00 0.10 0.10 86 1007.1
20260902063325 15 182 11.3 14.5 0.00 0.10 0.10 86 1007.1
20260902062826 16 200 4.8 12.9 0.00 0.10 0.10 86 1007.1
20260902062325 16 207 6.4 12.9 0.00 0.10 0.10 86 1007.0
20260902061825 16 180 4.8 20.9 0.00 0.10 0.10 86 1007.1
20260902061326 16 158 1.6 20.9 0.00 0.10 0.10 86 1007.2
20260902060825 16 60 4.8 20.9 0.00 0.10 0.10 86 1007.2
20260902060325 16 175 4.8 19.3 0.00 0.10 0.10 86 1007.3
20260902055325 16 179 6.4 27.4 0.00 0.10 0.10 86 1007.3
20260902054825 16 180 3.2 27.4 0.00 0.10 0.10 86 1007.4
20260902054326 16 193 4.8 16.1 0.00 0.10 0.10 87 1007.4
20260902053825 16 144 6.4 14.5 0.00 0.10 0.10 87 1007.4
20260902053325 16 133 8.0 14.5 0.00 0.10 0.10 87 1007.5
20260902052826 16 187 6.4 27.4 0.00 0.10 0.10 87 1007.5
20260902052325 16 186 8.0 27.4 0.00 0.10 0.10 87 1007.5
20260902051825 16 46 0.0 27.4 0.00 0.10 0.10 87 1007.6
20260902051326 16 127 8.0 20.9 0.00 0.10 0.10 87 1007.6
20260902050825 16 190 11.3 29.0 0.00 0.10 0.10 87 1007.6
20260902050325 16 156 6.4 29.0 0.00 0.10 0.10 87 1007.5
20260902045826 16 200 12.9 29.0 0.00 0.10 0.10 87 1007.6
20260902044825 16 180 6.4 22.5 0.00 0.10 0.10 87 1007.7
20260902044326 16 172 9.7 22.5 0.00 0.10 0.10 87 1007.8
20260902043826 16 207 8.0 22.5 0.00 0.10 0.10 87 1007.7
20260902043325 16 179 6.4 22.5 0.00 0.10 0.10 87 1007.7
20260902042826 16 205 6.4 20.9 0.00 0.10 0.10 87 1007.7
20260902042325 16 162 8.0 20.9 0.00 0.10 0.10 87 1007.8
20260902041825 16 165 11.3 20.9 0.00 0.10 0.10 87 1007.9
20260902041326 16 175 12.9 25.7 0.00 0.10 0.10 87 1007.9
20260902040825 16 163 11.3 25.7 0.00 0.10 0.10 87 1007.9
20260902040325 16 156 6.4 25.7 0.00 0.10 0.10 87 1007.8
20260902035826 16 208 16.1 25.7 0.00 0.10 0.10 87 1007.8
20260902034825 16 163 6.4 25.7 0.00 0.10 0.10 87 1007.8
20260902034326 16 194 11.3 30.6 0.00 0.10 0.10 87 1007.8